Regional Weather Roundup
Issued by NWS Sterling, VA

Home | Current Version | Previous Version | Graphics & Text | Print | Product List | Glossary On
Versions: 1 2 3 4 5 6 7 8 9 10 11 12 13 14 15 16 17 18 19 20 21 22 23 24 25 26 27 28
000
ASUS41 KLWX 270710
RWRLWX

REGIONAL WEATHER ROUNDUP
NATIONAL WEATHER SERVICE BALTIMORE MD/WASHINGTON DC
200 AM EST MON FEB 27 2017

Note: "FAIR" indicates few or no clouds below 12,000 feet
with no significant weather and/or obstructions to visibility.
 TC=TEMPERATURE CELSIUS

 * =Non NWS site. Station does not report precipitation (e.g. rain,
    snow, etc.), thunder, or fog.

DCZ001-MDZ009-015-VAZ040>042-051-053>054-270800-
WASHINGTON METRO

CITY           SKY/WX    TMP DP  RH WIND       PRES   REMARKS
WASHINGTON NAT PTCLDY    40  29  64 SE8       30.34R
DULLES         CLEAR     27  21  78 CALM      30.32R
ANDREWS AFB    CLEAR     34  25  71 S7        30.31S
FT BELVOIR     CLEAR     28  22  79 CALM      30.33S
QUANTICO       CLEAR     34  30  85 NW5       30.36R
COLLEGE PARK*  PTCLDY    28  23  80 CALM      30.33S
LEESBURG*      CLEAR     28  23  80 MISG      30.33S
MANASSAS*      PTCLDY    23  20  88 CALM      30.34R
GAITHERSBURG*  CLEAR     27  19  74 CALM      30.35S

$$

MDZ006>007-011-014-270800-
BALTIMORE METRO

CITY           SKY/WX    TMP DP  RH WIND       PRES   REMARKS
BWI AIRPORT    CLEAR     28  23  81 CALM      30.33R
MD SCIENCE CTR   N/A     37  20  50 MISG      30.33R
MARTIN STATE   CLEAR     32  28  86 CALM      30.36R
ANNAPOLIS      CLEAR     35  30  82 CALM      30.33S
FORT MEADE*    PTCLDY    27  23  86 CALM      30.36R

$$

MDZ012-015-019>023-270800-
MARYLAND EASTERN SHORE

CITY           SKY/WX    TMP DP  RH WIND       PRES   REMARKS
OCEAN CITY     CLEAR     28  24  85 CALM      30.37R
SALISBURY      CLEAR     27  24  89 CALM      30.36R
BAY BRIDGE AP* CLEAR     37  30  75 SE5       30.34S
CAMBRIDGE*     CLEAR     30  25  80 SE5       30.36R
EASTON*        CLEAR     32  24  72 CALM      30.38S

$$

MDZ017>025-270800-
SOUTHERN MARYLAND

CITY           SKY/WX    TMP DP  RH WIND       PRES   REMARKS
PATUXENT RIVER CLEAR     35  32  88 S5        30.35R
ST INIGOES     CLEAR     30  27  88 E5        30.34R
LEONARDTOWN*   CLEAR     34  30  86 CALM      30.35F

$$

MDZ003>005-270800-
NORTH CENTRAL MARYLAND

CITY           SKY/WX    TMP DP  RH WIND       PRES   REMARKS
FREDERICK*     PTCLDY    27  25  93 CALM      30.36R
HAGERSTOWN APT PTCLDY    32  18  56 S6        30.29R
WESTMINSTER*   CLEAR     32  21  64 S5        30.30R

$$

MDZ501>502-270800-
WESTERN MARYLAND

CITY           SKY/WX    TMP DP  RH WIND       PRES   REMARKS
OAKLAND*       MOCLDY    30  10  43 SW7       30.19S
CUMBERLAND*    PTCLDY    28  21  74 CALM      30.33R

$$

VAZ025>031-270800-
SHENANDOAH VALLEY

CITY           SKY/WX    TMP DP  RH WIND       PRES   REMARKS
WINCHESTER*    CLEAR     28  16  59 SW3       30.30R
FRONT ROYAL*   CLEAR     28  19  69 S3        30.30R
LURAY*         PTCLDY    28  23  80 CALM      30.30R
NEW MARKET*    PTCLDY    24  17  73 CALM      30.29S
STAUNTON*      PTCLDY    23  16  76 CALM      30.31R
WAYNESBORO*    PTCLDY    30  11  45 CALM      30.28S

$$

WVZ021-048>050-054>055-270800-
EASTERN WEST VIRGINIA PANHANDLE

CITY           SKY/WX    TMP DP  RH WIND       PRES   REMARKS
MARTINSBURG    CLEAR     25  16  68 SE3       30.30R
PETERSBURG*    PTCLDY    26  21  83 CALM      30.30S

$$

VAZ036>039-050-270800-
CENTRAL FOOTHILLS

CITY           SKY/WX    TMP DP  RH WIND       PRES   REMARKS
CHARLOTTESVILL CLEAR     32  14  47 CALM      30.31R
CULPEPER*      CLEAR     26  23  89 CALM      30.34R
ORANGE*        CLEAR     28  23  80 CALM      30.34R
GORDONSVILLE*  CLEAR     28  23  84 CALM      30.32R
WARRENTON*     CLEAR     24  20  85 CALM      30.32R

$$

VAZ055>057-270800-
NORTH AND CENTRAL PIEDMONT

CITY           SKY/WX    TMP DP  RH WIND       PRES   REMARKS
FREDERICKSBRG* CLEAR     31  25  80 CALM      30.34R
STAFFORD*      CLEAR     26  25  96 CALM      30.38R

$$

NCZ024-NYZ072-PAZ021-071-VAZ022-071-270800-
OTHER REGIONAL OBSERVATIONS

CITY           SKY/WX    TMP DP  RH WIND       PRES   REMARKS
NEW YORK CITY  CLEAR     36  16  44 MISG      30.31S
PHILADELPHIA   PTCLDY    33  21  61 S7        30.34R
PITTSBURGH     CLOUDY    32  14  47 S3        30.21R
ROANOKE        CLEAR     32  19  58 CALM      30.32R
RICHMOND       CLEAR     33  27  78 CALM      30.34R
RALEIGH        CLEAR     38  23  55 CALM      30.33S

$$

ANZ530>537-270800-
MARINE OBSERVATIONS

STATION/POSITION TIME  TEMP    WIND        PRES
                       AIR SEA DIR/SP/G
                 (UTC) (F)     (DEG/KT/KT) (MB)
THOMAS PT LIGHT  0700   43 44  190/  9/ 10   N/A
BALT KEY BRIDGE  0642   38                 1027.5R
COVE POINT       0642   41                 1028.1R
LEWISETTA        0642   42 48              1027.3R
SOLOMONS ISLAND  0642   40 45                N/A
PINEY POINT      0624          170/  8/  9   N/A

$$





USA.gov is the U.S. government's official web portal to all federal, state and local government web resources and services.